Flag for U.S.A. Weather past 2 weeks in Clarksville, Tennessee, U.S.A.

Now
92 °F

Sunny.


Feels Like: 100 °F
Forecast: 72 / 90 °F
Wind: 9 mph from West

Location: Outlaw Field

Current Time: Aug 4, 2015 at 5:14:57 PM

Latest Report: Aug 4, 2015 at 3:52 PM


Visibility: 10 mi

Pressure: 29.94 "Hg

Humidity: 52%

Dew point: 72 °F

Location of ClarksvilleLocation

Historic Weather in Clarksville — Graph

°F

Clarksville temperature yesterday

Maximum temperature yesterday: 91 °F (at 1:52 PM)
Minimum temperature yesterday: 66 °F (at 2:52 AM)
Average temperature yesterday: 79 °F

Past Weeks' High & Low Weather Summary

 TemperatureHumidityPressure
High93 °F (Jul 28, 1:52 PM)100% (Jul 27, 4:52 AM)30.11 "Hg (Jul 27, 4:52 AM)
Low61 °F (Aug 2, 6:00 AM)39% (Aug 2, 2:52 PM)29.77 "Hg (Jul 20, 8:52 PM)
Average78 °F77%29.95 "Hg
* Reported Jul 20 2:52 PM — Aug 4 2:52 PM, Clarksville, Weather by CustomWeather, © 2015

Note: Actual official high and low records may vary slightly from our data, if they occured in-between our weather recording intervals... More about our weather records

Advertising

Clarksville weather history for previous 24 hours

 ConditionsComfort  
Time TempWeatherWind HumidityBarometerVisibility
2:52 PM
Tue, Aug 4
92 °FPassing clouds.9 mph51%29.96 "Hg10 mi
1:52 PM92 °FPassing clouds.7 mph49%29.98 "Hg10 mi
12:52 PM91 °FPassing clouds.9 mph50%29.98 "Hg10 mi
11:52 AM90 °FSunny.8 mph56%29.99 "Hg10 mi
10:52 AM88 °FSunny.8 mph55%29.99 "Hg10 mi
9:52 AM85 °FSunny.3 mph65%29.99 "Hg10 mi
8:52 AM81 °FSunny.5 mph74%29.98 "Hg10 mi
7:52 AM75 °FSunny.No wind90%29.97 "Hg9 mi
6:52 AM71 °FFog.No wind96%29.97 "Hg3 mi
5:52 AM70 °FFog.No wind93%29.96 "Hg3 mi
4:52 AM71 °FClear.No wind93%29.94 "Hg7 mi
3:52 AM70 °FClear.No wind97%29.93 "Hg9 mi
2:52 AM71 °FFog.No wind96%29.92 "Hg5 mi
1:52 AM72 °FClear.No wind91%29.92 "Hg10 mi
12:52 AM72 °FClear.No wind91%29.92 "Hg10 mi
11:52 PM
Mon, Aug 3
73 °FClear.No wind90%29.92 "Hg10 mi
10:52 PM74 °FClear.No wind91%29.92 "Hg10 mi
9:52 PM80 °FClear.3 mph74%29.92 "Hg10 mi
8:52 PM82 °FClear.3 mph74%29.90 "Hg10 mi
7:52 PM85 °FSunny.No wind65%29.89 "Hg10 mi
6:52 PM87 °FSunny.6 mph57%29.89 "Hg10 mi
5:52 PM89 °FSunny.8 mph53%29.88 "Hg10 mi
Weather by CustomWeather, © 2015

See weather overviewHow to use our weather pages